Regional Weather Roundup
Issued by NWS

Home | Current Version | Previous Version | Graphics & Text | Print | Product List | Glossary On
Versions: 1 2 3 4 5 6 7 8 9 10 11 12 13 14 15 16 17 18 19 20 21 22 23 24 25 26 27 28 29 30 31 32 33 34 35 36 37 38 39 40 41 42 43 44 45 46 47 48 49 50
000
ASUS43 KMKX 270311
RWRWI

WISCONSIN REGIONAL WEATHER ROUNDUP
NATIONAL WEATHER SERVICE MILWAUKEE/SULLIVAN WI
1000 PM CDT WED JUL 26 2017

NOTE: "FAIR" INDICATES FEW OR NO CLOUDS BELOW 12,000 FEET WITH NO
SIGNIFICANT WEATHER AND/OR OBSTRUCTIONS TO VISIBILITY.

WIZ001-002-006>008-014>016-023>028-270400-
NORTHWEST WISCONSIN

CITY           SKY/WX    TMP DP  RH WIND       PRES   REMARKS
SUPERIOR ARPT  NOT AVBL
ASHLAND        CLEAR     63  61  93 W5        29.99R
HAYWARD        CLEAR     65  62  90 CALM      30.01R
SIREN          CLEAR     68  63  84 CALM      30.02S
CUMBERLAND     CLEAR     64  61  88 CALM      30.02R
RICE LAKE      CLEAR     66  64  91 CALM      30.03R
CHETEK           N/A     66  64  94 CALM      30.02R
LADYSMITH      CLEAR     66  63  90 CALM      30.03R
EAU CLAIRE     CLEAR     67  63  87 CALM      29.99R
MENOMONIE      CLEAR     70  64  82 CALM      30.00S
NEW RICHMOND   CLEAR     67  61  82 CALM      30.02S
OSCEOLA        PTCLDY    67  62  84 CALM      30.04R
$$

WIZ003>005-009-010-017-018-270400-
NORTH CENTRAL WISCONSIN

CITY           SKY/WX    TMP DP  RH WIND       PRES   REMARKS
MANITOWISH WTR CLEAR     58  58 100 CALM      30.02R
ARBOR VITAE    CLEAR     62  59  90 CALM      30.02R
WOODRUFF       CLEAR     62  59  90 CALM      30.02R
RHINELANDER    CLEAR     60  57  89 CALM      30.03R
EAGLE RIVER    CLEAR     59  56  92 CALM      30.02R
LAND O LAKES   CLEAR     57  55  94 CALM      30.04R
PHILLIPS       CLEAR     62  62 100 CALM      30.02R
TOMAHAWK         N/A     61  58  91 CALM      30.03R
MEDFORD        MOCLDY    66  63  89 N3        30.01S
MERRILL        MOCLDY    66  66 100 CALM      30.01R
$$

WIZ029-030-035-036-043>047-270400-
CENTRAL WISCONSIN

CITY           SKY/WX    TMP DP  RH WIND       PRES   REMARKS
WAUSAU         PTCLDY    69  68  96 CALM      29.99R
MOSINEE        PTCLDY    66  66 100 CALM      30.01R FOG
MARSHFIELD     CLEAR     65  63  93 W3        30.00R FOG
STEVENS POINT  CLEAR     68  68 100 CALM      30.00R
WAUPACA        CLOUDY    75  72  90 CALM      29.98R
WAUTOMA        CLOUDY    71  70  96 CALM      29.99R
WISC RAPIDS    PTCLDY    71  70  96 NW3       30.00R
CAMP DOUGLAS   MOCLDY    70  70 100 CALM      29.99R
$$

WIZ011>013-019>022-031-037>040-048>050-270400-
NORTHEAST WISCONSIN

CITY           SKY/WX    TMP DP  RH WIND       PRES   REMARKS
ANTIGO         MOCLDY    67  67  99 N7        30.02R
SHAWANO        MOCLDY    73  69  86 SW5       29.97R
OCONTO         CLOUDY    71  69  92 W3        29.95R
STURGEON BAY     N/A     72  70  93 SW6       29.96R
GREEN BAY      CLOUDY    73  73 100 CALM      29.96R
MANITOWOC      CLOUDY    71  69  93 SW6       29.98R
APPLETON       CLOUDY    73  72  94 SW7       29.96S
CLINTONVILLE   CLOUDY   N/A N/A N/A W3        29.98R
OSHKOSH        LGT RAIN  72  69  90 SW5       29.98R FOG
$$

WIZ032>034-041-042-053>061-270400-
SOUTHWEST WISCONSIN

CITY           SKY/WX    TMP DP  RH WIND       PRES   REMARKS
LA CROSSE      LGT RAIN  77  73  87 N6        29.97S
SPARTA         CLOUDY    71  69  94 CALM      30.00R
VIROQUA        MOCLDY    72  72 100 CALM      30.01S
BOSCOBEL       PTCLDY    73  71  93 CALM      29.98R FOG
PRAIRIE DU CHI CLOUDY    74  70  86 CALM      29.97S
PLATTEVILLE    CLOUDY    72  71  98 SE3       29.98S
$$

WIZ056-057-062-063-064-067-068-270400-
SOUTH CENTRAL WISCONSIN

CITY           SKY/WX    TMP DP  RH WIND       PRES   REMARKS
REEDSBURG      CLOUDY    70  70 100 CALM      29.98S
BARABOO/DELLS  FOG       71  69  95 CALM      29.99R VSB 3/4
LONE ROCK      CLOUDY    72  72 100 CALM      29.97S
MINERAL POINT  CLOUDY    73  73 100 N6        30.00R
MADISON        CLOUDY    70  69  97 CALM      29.98R
MIDDLETON      CLOUDY    71  71 100 NW5       30.00R VSB 1/2
WATERTOWN      CLOUDY    71  71 100 CALM      29.97S
MONROE         RAIN      70  70 100 SE8       29.98S
JANESVILLE     LGT RAIN  73  73 100 S6        29.97F
$$

WIZ051-052-058>065-066-070>072-270400-
SOUTHEAST WISCONSIN

CITY           SKY/WX    TMP DP  RH WIND       PRES   REMARKS
MILWAUKEE      CLOUDY    73  70  90 SE5       29.97S
WAUKESHA       NOT AVBL
MILWAUKEE/TIMM PTCLDY    70  66  88 S6        29.98F FOG
RACINE         CLOUDY    75  70  84 CALM      29.98F
KENOSHA        CLOUDY    75  70  84 CALM      29.97S
FOND DU LAC    CLOUDY    71  68  90 CALM      29.98R
SHEBOYGAN      CLOUDY    71  71 100 W3        29.98R FOG
WEST BEND      CLOUDY    70  70 100 CALM      29.98S
JUNEAU         CLOUDY    71  70  97 CALM      29.99S FOG
$$

LSZ147-162-270400-
LAKE SUPERIOR

STATION/POSITION TIME  TEMP    WIND        PRES    WAVE
                       AIR SEA DIR/SP/G            HT/PER
                 (UTC) (F)     (DEG/KT/KT) (MB)    (FT/S)
W MID LAKE BUOY  0250   58 53  270/  8/  8 1014.5R   1
DEVILS ISLAND    0300   72     300/  6/  7 1015.1R
SAXON HARBOR     0240   67     190/  4/  4 1014.6R
$$

LMZ867-665-643>646-270400-
LAKE MICHIGAN

STATION/POSITION TIME  TEMP    WIND        PRES    WAVE
                       AIR SEA DIR/SP/G            HT/PER
                 (UTC) (F)     (DEG/KT/KT) (MB)    (FT/S)
CHAMBERS ISLAND  0240   73     220/  3/  7 1013.2R
S GREEN BAY BUOY 0200   72 71  210/  6/  6 1013.6
N MID LAKE BUOY  0250   67 66  280/  4/  4 1014.8R   3/ 5
NORTHPORT PIER   0240   71     240/  1/  3 1013.5R
KEWAUNEE LAKESHO 0242   70     190/  5/  7 1013.6S
SHEBOYGAN LAKESH 0300   71     210/  4/  4 1014.4R
PORT WASHINGTON  0240   71     200/  3/  7 1015.6S
ATWATER BUOY     0209   69 69  160/  4/  6 1015.2
MILWAUKEE LAKESH 0250   71     170/  3/  3   N/A
S MID LAKE BUOY  0250   73 70  130/  8/  8 1014.9R   1
KENOSHA   LAKESH 0300   72     180/  5/  7 1014.6
$$

TC  - TEMPERATURE IN CELSIUS
VSB - VISIBILITY IN STATUTE MILES
WCI - WIND CHILL INDEX
HX  - HEAT INDEX





USA.gov is the U.S. government's official web portal to all federal, state and local government web resources and services.